����������;��������(kWh)
2017-06-26 00:00;95,85
2017-06-26 00:15;94,85
2017-06-26 00:30;96
2017-06-26 00:45;95,1
2017-06-26 01:00;104,85
2017-06-26 01:15;106,15
2017-06-26 01:30;103,15
2017-06-26 01:45;93,35
2017-06-26 02:00;95,85
2017-06-26 02:15;94,45
2017-06-26 02:30;96,85
2017-06-26 02:45;94,6
2017-06-26 03:00;93,75
2017-06-26 03:15;98,05
2017-06-26 03:30;95,15
2017-06-26 03:45;94,4
2017-06-26 04:00;95,75
2017-06-26 04:15;93,5
2017-06-26 04:30;93,7
2017-06-26 04:45;95,95
2017-06-26 05:00;95,65
2017-06-26 05:15;100,95
2017-06-26 05:30;94,65
2017-06-26 05:45;97,05
2017-06-26 06:00;94,5
2017-06-26 06:15;93,3
2017-06-26 06:30;88,85
2017-06-26 06:45;92,15
2017-06-26 07:00;92,25
2017-06-26 07:15;97,6
2017-06-26 07:30;155
2017-06-26 07:45;151,65
2017-06-26 08:00;134,1
2017-06-26 08:15;140,25
2017-06-26 08:30;138,4
2017-06-26 08:45;147,3
2017-06-26 09:00;156,95
2017-06-26 09:15;178,95
2017-06-26 09:30;199,1
2017-06-26 09:45;205,95
2017-06-26 10:00;211,55
2017-06-26 10:15;263,8
2017-06-26 10:30;291,1
2017-06-26 10:45;296,85
2017-06-26 11:00;273,9
2017-06-26 11:15;274,35
2017-06-26 11:30;276,2
2017-06-26 11:45;270,75
2017-06-26 12:00;269,8
2017-06-26 12:15;265,85
2017-06-26 12:30;272,8
2017-06-26 12:45;273,55
2017-06-26 13:00;280,2
2017-06-26 13:15;279,7
2017-06-26 13:30;271,6
2017-06-26 13:45;275,15
2017-06-26 14:00;272,35
2017-06-26 14:15;278,8
2017-06-26 14:30;324,8
2017-06-26 14:45;334,85
2017-06-26 15:00;312,1
2017-06-26 15:15;270,1
2017-06-26 15:30;273,35
2017-06-26 15:45;260,35
2017-06-26 16:00;247,3
2017-06-26 16:15;250,85
2017-06-26 16:30;235,1
2017-06-26 16:45;235,55
2017-06-26 17:00;224,95
2017-06-26 17:15;205,85
2017-06-26 17:30;209,35
2017-06-26 17:45;208,5
2017-06-26 18:00;193,6
2017-06-26 18:15;194,2
2017-06-26 18:30;196,25
2017-06-26 18:45;189,65
2017-06-26 19:00;166,5
2017-06-26 19:15;168,75
2017-06-26 19:30;159,45
2017-06-26 19:45;169,75
2017-06-26 20:00;160,55
2017-06-26 20:15;136,3
2017-06-26 20:30;138,85
2017-06-26 20:45;141,75
2017-06-26 21:00;129,55
2017-06-26 21:15;140,55
2017-06-26 21:30;137,7
2017-06-26 21:45;125,25
2017-06-26 22:00;122,25
2017-06-26 22:15;121,65
2017-06-26 22:30;118,45
2017-06-26 22:45;122,95
2017-06-26 23:00;119,35
2017-06-26 23:15;119,1
2017-06-26 23:30;116,7
2017-06-26 23:45;109
2017-06-27 00:00;115,05
2017-06-27 00:15;116,3
2017-06-27 00:30;106,85
2017-06-27 00:45;116,65
2017-06-27 01:00;103,5
2017-06-27 01:15;114,05
2017-06-27 01:30;109,1
2017-06-27 01:45;110,05
2017-06-27 02:00;109,4
2017-06-27 02:15;103,7
2017-06-27 02:30;106,85
2017-06-27 02:45;106,55
2017-06-27 03:00;93,05
2017-06-27 03:15;102,6
2017-06-27 03:30;99,1
2017-06-27 03:45;93
2017-06-27 04:00;102,6
2017-06-27 04:15;98,75
2017-06-27 04:30;91,5
2017-06-27 04:45;100,75
2017-06-27 05:00;98,45
2017-06-27 05:15;95,6
2017-06-27 05:30;105,6
2017-06-27 05:45;99
2017-06-27 06:00;105,35
2017-06-27 06:15;99,95
2017-06-27 06:30;90,75
2017-06-27 06:45;105,45
2017-06-27 07:00;101,95
2017-06-27 07:15;110,6
2017-06-27 07:30;110,8
2017-06-27 07:45;113,45
2017-06-27 08:00;131,3
2017-06-27 08:15;158,55
2017-06-27 08:30;158,9
2017-06-27 08:45;158,3
2017-06-27 09:00;179,15
2017-06-27 09:15;186,05
2017-06-27 09:30;192,55
2017-06-27 09:45;202,15
2017-06-27 10:00;205
2017-06-27 10:15;225,4
2017-06-27 10:30;240,3
2017-06-27 10:45;241,75
2017-06-27 11:00;259,6
2017-06-27 11:15;272,05
2017-06-27 11:30;269,4
2017-06-27 11:45;266,15
2017-06-27 12:00;293,75
2017-06-27 12:15;290,15
2017-06-27 12:30;286,95
2017-06-27 12:45;276,6
2017-06-27 13:00;283,5
2017-06-27 13:15;277,55
2017-06-27 13:30;290,8
2017-06-27 13:45;290
2017-06-27 14:00;283,25
2017-06-27 14:15;279,4
2017-06-27 14:30;279,8
2017-06-27 14:45;265,15
2017-06-27 15:00;259,95
2017-06-27 15:15;262,8
2017-06-27 15:30;249,3
2017-06-27 15:45;245,5
2017-06-27 16:00;237,6
2017-06-27 16:15;211,9
2017-06-27 16:30;212,05
2017-06-27 16:45;212,15
2017-06-27 17:00;205,2
2017-06-27 17:15;192,5
2017-06-27 17:30;190,35
2017-06-27 17:45;193,5
2017-06-27 18:00;182,9
2017-06-27 18:15;175,45
2017-06-27 18:30;176,1
2017-06-27 18:45;175,45
2017-06-27 19:00;171,75
2017-06-27 19:15;156,75
2017-06-27 19:30;149,95
2017-06-27 19:45;152,8
2017-06-27 20:00;137,65
2017-06-27 20:15;133,05
2017-06-27 20:30;132,55
2017-06-27 20:45;128,15
2017-06-27 21:00;131,25
2017-06-27 21:15;131,75
2017-06-27 21:30;129,9
2017-06-27 21:45;128,3
2017-06-27 22:00;119
2017-06-27 22:15;119,15
2017-06-27 22:30;117,85
2017-06-27 22:45;114,15
2017-06-27 23:00;111,95
2017-06-27 23:15;111
2017-06-27 23:30;109,55
2017-06-27 23:45;103,1
2017-06-28 00:00;96,95
2017-06-28 00:15;96,7
2017-06-28 00:30;93,9
2017-06-28 00:45;94,95
2017-06-28 01:00;95,45
2017-06-28 01:15;93,2
2017-06-28 01:30;92,4
2017-06-28 01:45;91,95
2017-06-28 02:00;91,05
2017-06-28 02:15;92,3
2017-06-28 02:30;91,4
2017-06-28 02:45;90,45
2017-06-28 03:00;92
2017-06-28 03:15;89,95
2017-06-28 03:30;92,05
2017-06-28 03:45;91,15
2017-06-28 04:00;91,5
2017-06-28 04:15;91
2017-06-28 04:30;90,3
2017-06-28 04:45;89,9
2017-06-28 05:00;91,75
2017-06-28 05:15;94,65
2017-06-28 05:30;97,05
2017-06-28 05:45;96,2
2017-06-28 06:00;94,8
2017-06-28 06:15;96,25
2017-06-28 06:30;91,85
2017-06-28 06:45;107,35
2017-06-28 07:00;106,35
2017-06-28 07:15;114,95
2017-06-28 07:30;174,4
2017-06-28 07:45;140,4
2017-06-28 08:00;146,3
2017-06-28 08:15;188,9
2017-06-28 08:30;205,9
2017-06-28 08:45;177,7
2017-06-28 09:00;197,1
2017-06-28 09:15;209,55
2017-06-28 09:30;201,85
2017-06-28 09:45;226,9
2017-06-28 10:00;239,45
2017-06-28 10:15;245,75
2017-06-28 10:30;248,45
2017-06-28 10:45;251,55
2017-06-28 11:00;262,9
2017-06-28 11:15;277,6
2017-06-28 11:30;273,7
2017-06-28 11:45;277,05
2017-06-28 12:00;290,65
2017-06-28 12:15;279,8
2017-06-28 12:30;281,95
2017-06-28 12:45;289,85
2017-06-28 13:00;292,85
2017-06-28 13:15;285,35
2017-06-28 13:30;283,85
2017-06-28 13:45;283
2017-06-28 14:00;284,65
2017-06-28 14:15;271,85
2017-06-28 14:30;282,2
2017-06-28 14:45;279,05
2017-06-28 15:00;272,4
2017-06-28 15:15;283,1
2017-06-28 15:30;274,7
2017-06-28 15:45;254
2017-06-28 16:00;270,25
2017-06-28 16:15;249,95
2017-06-28 16:30;248,45
2017-06-28 16:45;246,55
2017-06-28 17:00;225,2
2017-06-28 17:15;217,4
2017-06-28 17:30;200,9
2017-06-28 17:45;201,1
2017-06-28 18:00;198,4
2017-06-28 18:15;194,6
2017-06-28 18:30;192,7
2017-06-28 18:45;183,45
2017-06-28 19:00;178,8
2017-06-28 19:15;165,6
2017-06-28 19:30;159,6
2017-06-28 19:45;159,5
2017-06-28 20:00;153,6
2017-06-28 20:15;143,65
2017-06-28 20:30;144,25
2017-06-28 20:45;140,85
2017-06-28 21:00;137,1
2017-06-28 21:15;134,3
2017-06-28 21:30;128,05
2017-06-28 21:45;123,2
2017-06-28 22:00;111,35
2017-06-28 22:15;108,6
2017-06-28 22:30;107,5
2017-06-28 22:45;108
2017-06-28 23:00;105
2017-06-28 23:15;103,5
2017-06-28 23:30;105,05
2017-06-28 23:45;104,35
2017-06-29 00:00;104,95
2017-06-29 00:15;103,85
2017-06-29 00:30;102,45
2017-06-29 00:45;102,3
2017-06-29 01:00;101,55
2017-06-29 01:15;98,05
2017-06-29 01:30;99,35
2017-06-29 01:45;97,1
2017-06-29 02:00;97,3
2017-06-29 02:15;95,3
2017-06-29 02:30;94,75
2017-06-29 02:45;94,85
2017-06-29 03:00;93,85
2017-06-29 03:15;96,65
2017-06-29 03:30;93,7
2017-06-29 03:45;94,55
2017-06-29 04:00;94,05
2017-06-29 04:15;92,35
2017-06-29 04:30;92,4
2017-06-29 04:45;94,2
2017-06-29 05:00;95,55
2017-06-29 05:15;97,6
2017-06-29 05:30;99,75
2017-06-29 05:45;103,95
2017-06-29 06:00;103,2
2017-06-29 06:15;97,7
2017-06-29 06:30;99,05
2017-06-29 06:45;115,95
2017-06-29 07:00;119,5
2017-06-29 07:15;118,05
2017-06-29 07:30;180,6
2017-06-29 07:45;144,85
2017-06-29 08:00;156
2017-06-29 08:15;162,55
2017-06-29 08:30;167,65
2017-06-29 08:45;207,75
2017-06-29 09:00;228,7
2017-06-29 09:15;209,65
2017-06-29 09:30;242
2017-06-29 09:45;249,75
2017-06-29 10:00;255,35
2017-06-29 10:15;268,2
2017-06-29 10:30;270,8
2017-06-29 10:45;272,35
2017-06-29 11:00;284,55
2017-06-29 11:15;290,05
2017-06-29 11:30;277,1
2017-06-29 11:45;275,8
2017-06-29 12:00;272,35
2017-06-29 12:15;267,4
2017-06-29 12:30;267,1
2017-06-29 12:45;268
2017-06-29 13:00;305,2
2017-06-29 13:15;332,25
2017-06-29 13:30;321,3
2017-06-29 13:45;289,5
2017-06-29 14:00;303,25
2017-06-29 14:15;287,25
2017-06-29 14:30;294,85
2017-06-29 14:45;277
2017-06-29 15:00;282,6
2017-06-29 15:15;260,8
2017-06-29 15:30;269,6
2017-06-29 15:45;248,9
2017-06-29 16:00;230,05
2017-06-29 16:15;241,75
2017-06-29 16:30;226,25
2017-06-29 16:45;207,9
2017-06-29 17:00;216,15
2017-06-29 17:15;201,6
2017-06-29 17:30;185,45
2017-06-29 17:45;180,55
2017-06-29 18:00;182,7
2017-06-29 18:15;179,1
2017-06-29 18:30;173,75
2017-06-29 18:45;171,05
2017-06-29 19:00;168,9
2017-06-29 19:15;159,2
2017-06-29 19:30;156,1
2017-06-29 19:45;154
2017-06-29 20:00;139,35
2017-06-29 20:15;132,05
2017-06-29 20:30;138,4
2017-06-29 20:45;138,5
2017-06-29 21:00;137,9
2017-06-29 21:15;132,6
2017-06-29 21:30;135,8
2017-06-29 21:45;132,8
2017-06-29 22:00;125,1
2017-06-29 22:15;120,8
2017-06-29 22:30;122,85
2017-06-29 22:45;125,9
2017-06-29 23:00;123,15
2017-06-29 23:15;121,3
2017-06-29 23:30;120,15
2017-06-29 23:45;117,8
2017-06-30 00:00;112,9
2017-06-30 00:15;115,55
2017-06-30 00:30;114,25
2017-06-30 00:45;115,35
2017-06-30 01:00;105,6
2017-06-30 01:15;103,85
2017-06-30 01:30;102,15
2017-06-30 01:45;98,35
2017-06-30 02:00;102
2017-06-30 02:15;101,75
2017-06-30 02:30;100,9
2017-06-30 02:45;98,9
2017-06-30 03:00;97,5
2017-06-30 03:15;96,45
2017-06-30 03:30;98,6
2017-06-30 03:45;97,25
2017-06-30 04:00;96,9
2017-06-30 04:15;97,95
2017-06-30 04:30;95,35
2017-06-30 04:45;95,9
2017-06-30 05:00;96,2
2017-06-30 05:15;100,7
2017-06-30 05:30;100,75
2017-06-30 05:45;105,35
2017-06-30 06:00;104,45
2017-06-30 06:15;99,95
2017-06-30 06:30;100,5
2017-06-30 06:45;101,8
2017-06-30 07:00;111,7
2017-06-30 07:15;115,2
2017-06-30 07:30;172,4
2017-06-30 07:45;139,6
2017-06-30 08:00;151,75
2017-06-30 08:15;177,05
2017-06-30 08:30;175,5
2017-06-30 08:45;214
2017-06-30 09:00;241,25
2017-06-30 09:15;220
2017-06-30 09:30;235,6
2017-06-30 09:45;254,45
2017-06-30 10:00;240,85
2017-06-30 10:15;256,8
2017-06-30 10:30;271,5
2017-06-30 10:45;265,4
2017-06-30 11:00;275,7
2017-06-30 11:15;277
2017-06-30 11:30;288,65
2017-06-30 11:45;287,15
2017-06-30 12:00;290,35
2017-06-30 12:15;354,9
2017-06-30 12:30;365,9
2017-06-30 12:45;343,15
2017-06-30 13:00;324,9
2017-06-30 13:15;321,25
2017-06-30 13:30;332,65
2017-06-30 13:45;301,45
2017-06-30 14:00;305,5
2017-06-30 14:15;310,45
2017-06-30 14:30;282,4
2017-06-30 14:45;291,8
2017-06-30 15:00;276,8
2017-06-30 15:15;266,05
2017-06-30 15:30;242,65
2017-06-30 15:45;243,65
2017-06-30 16:00;231,5
2017-06-30 16:15;219,8
2017-06-30 16:30;216,85
2017-06-30 16:45;211,85
2017-06-30 17:00;208,4
2017-06-30 17:15;197,35
2017-06-30 17:30;194,5
2017-06-30 17:45;194,85
2017-06-30 18:00;261,5
2017-06-30 18:15;254,8
2017-06-30 18:30;190,3
2017-06-30 18:45;182,6
2017-06-30 19:00;177,2
2017-06-30 19:15;166,9
2017-06-30 19:30;164,7
2017-06-30 19:45;157,45
2017-06-30 20:00;154,35
2017-06-30 20:15;151,55
2017-06-30 20:30;148,65
2017-06-30 20:45;149,15
2017-06-30 21:00;148,55
2017-06-30 21:15;145,25
2017-06-30 21:30;144,05
2017-06-30 21:45;144,75
2017-06-30 22:00;131,45
2017-06-30 22:15;133,5
2017-06-30 22:30;131,25
2017-06-30 22:45;134,55
2017-06-30 23:00;128,1
2017-06-30 23:15;122,6
2017-06-30 23:30;118,45
2017-06-30 23:45;114,35
2017-07-01 00:00;117
2017-07-01 00:15;118,1
2017-07-01 00:30;119,8
2017-07-01 00:45;120,3
2017-07-01 01:00;120,8
2017-07-01 01:15;111,85
2017-07-01 01:30;104,4
2017-07-01 01:45;103,85
2017-07-01 02:00;105,6
2017-07-01 02:15;103,1
2017-07-01 02:30;101,3
2017-07-01 02:45;100,65
2017-07-01 03:00;101,9
2017-07-01 03:15;99,35
2017-07-01 03:30;99,8
2017-07-01 03:45;101,95
2017-07-01 04:00;99,45
2017-07-01 04:15;100,2
2017-07-01 04:30;99,9
2017-07-01 04:45;100,45
2017-07-01 05:00;101,6
2017-07-01 05:15;100,8
2017-07-01 05:30;103,2
2017-07-01 05:45;105,05
2017-07-01 06:00;104,7
2017-07-01 06:15;104
2017-07-01 06:30;98,3
2017-07-01 06:45;98
2017-07-01 07:00;94,85
2017-07-01 07:15;93,1
2017-07-01 07:30;96,05
2017-07-01 07:45;97,85
2017-07-01 08:00;102,5
2017-07-01 08:15;103,25
2017-07-01 08:30;104,45
2017-07-01 08:45;105,65
2017-07-01 09:00;106,45
2017-07-01 09:15;106,1
2017-07-01 09:30;108,7
2017-07-01 09:45;119,7
2017-07-01 10:00;105,5
2017-07-01 10:15;107,6
2017-07-01 10:30;111,65
2017-07-01 10:45;109,1
2017-07-01 11:00;110,7
2017-07-01 11:15;114,5
2017-07-01 11:30;114,5
2017-07-01 11:45;121,5
2017-07-01 12:00;121,55
2017-07-01 12:15;123,55
2017-07-01 12:30;119,2
2017-07-01 12:45;122
2017-07-01 13:00;119,45
2017-07-01 13:15;118,45
2017-07-01 13:30;124,7
2017-07-01 13:45;126,4
2017-07-01 14:00;130
2017-07-01 14:15;133
2017-07-01 14:30;175,1
2017-07-01 14:45;192,4
2017-07-01 15:00;175,5
2017-07-01 15:15;150,3
2017-07-01 15:30;137,3
2017-07-01 15:45;18,55
2017-07-01 16:00;47,4
2017-07-01 16:15;129,65
2017-07-01 16:30;118,5
2017-07-01 16:45;118,3
2017-07-01 17:00;116,5
2017-07-01 17:15;111,25
2017-07-01 17:30;107,55
2017-07-01 17:45;109,55
2017-07-01 18:00;107,4
2017-07-01 18:15;106,6
2017-07-01 18:30;107,15
2017-07-01 18:45;109,2
2017-07-01 19:00;109,95
2017-07-01 19:15;111,65
2017-07-01 19:30;111,35
2017-07-01 19:45;116,45
2017-07-01 20:00;113
2017-07-01 20:15;107,65
2017-07-01 20:30;107,75
2017-07-01 20:45;110,5
2017-07-01 21:00;116,1
2017-07-01 21:15;114,7
2017-07-01 21:30;113,85
2017-07-01 21:45;111,6
2017-07-01 22:00;105,55
2017-07-01 22:15;105,35
2017-07-01 22:30;101,95
2017-07-01 22:45;100,3
2017-07-01 23:00;97,05
2017-07-01 23:15;94,75
2017-07-01 23:30;95,25
2017-07-01 23:45;94,75
2017-07-02 00:00;95,9
2017-07-02 00:15;93,15
2017-07-02 00:30;93,4
2017-07-02 00:45;93,35
2017-07-02 01:00;92,7
2017-07-02 01:15;92
2017-07-02 01:30;90,3
2017-07-02 01:45;90,1
2017-07-02 02:00;88,2
2017-07-02 02:15;89,25
2017-07-02 02:30;90,4
2017-07-02 02:45;89,4
2017-07-02 03:00;89,7
2017-07-02 03:15;85,55
2017-07-02 03:30;87,4
2017-07-02 03:45;85,35
2017-07-02 04:00;85,95
2017-07-02 04:15;88
2017-07-02 04:30;89,2
2017-07-02 04:45;89,3
2017-07-02 05:00;88,7
2017-07-02 05:15;86,95
2017-07-02 05:30;88,6
2017-07-02 05:45;87,7
2017-07-02 06:00;93,25
2017-07-02 06:15;91,1
2017-07-02 06:30;92,6
2017-07-02 06:45;91,15
2017-07-02 07:00;89,8
2017-07-02 07:15;92,05
2017-07-02 07:30;92,3
2017-07-02 07:45;89,75
2017-07-02 08:00;88,75
2017-07-02 08:15;88,75
2017-07-02 08:30;89,95
2017-07-02 08:45;89,5
2017-07-02 09:00;99,2
2017-07-02 09:15;99,05
2017-07-02 09:30;103,95
2017-07-02 09:45;109,8
2017-07-02 10:00;102,35
2017-07-02 10:15;102,6
2017-07-02 10:30;97,55
2017-07-02 10:45;97,95
2017-07-02 11:00;102
2017-07-02 11:15;104,6
2017-07-02 11:30;107,05
2017-07-02 11:45;110,35
2017-07-02 12:00;106,25
2017-07-02 12:15;106,1
2017-07-02 12:30;106,55
2017-07-02 12:45;115,25
2017-07-02 13:00;115,05
2017-07-02 13:15;114,65
2017-07-02 13:30;120,35
2017-07-02 13:45;121,15
2017-07-02 14:00;122,3
2017-07-02 14:15;119,7
2017-07-02 14:30;117
2017-07-02 14:45;111,8
2017-07-02 15:00;110,95
2017-07-02 15:15;108,65
2017-07-02 15:30;106,3
2017-07-02 15:45;110,8
2017-07-02 16:00;108,5
2017-07-02 16:15;105,8
2017-07-02 16:30;105,3
2017-07-02 16:45;98
2017-07-02 17:00;105,8
2017-07-02 17:15;100,5
2017-07-02 17:30;103,7
2017-07-02 17:45;108,1
2017-07-02 18:00;104,7
2017-07-02 18:15;105,2
2017-07-02 18:30;106,4
2017-07-02 18:45;107,05
2017-07-02 19:00;102,75
2017-07-02 19:15;105,25
2017-07-02 19:30;102,9
2017-07-02 19:45;105,85
2017-07-02 20:00;100,15
2017-07-02 20:15;102,85
2017-07-02 20:30;102,1
2017-07-02 20:45;107,9
2017-07-02 21:00;109,75
2017-07-02 21:15;112
2017-07-02 21:30;109,25
2017-07-02 21:45;112,9
2017-07-02 22:00;105,6
2017-07-02 22:15;106,25
2017-07-02 22:30;105
2017-07-02 22:45;104,9
2017-07-02 23:00;100
2017-07-02 23:15;101,3
2017-07-02 23:30;99
2017-07-02 23:45;98,55

